Location: Courcelles
(49.2596°N, 1.7419°E)
Time: 20:29:17
(UTC+00:00)

Cosmos 2195 Rocket - Pass Details

Date: 17 November 2025
Orbit: 949 x 991 km, 82.9° (Epoch: 10 December)

Event Time Altitude Azimuth Distance (km) Brightness Sun altitude
Rises 18:24:59 0° 351° (N) 3,699 7.6 -22.0°
Reaches altitude 10° 18:27:31 10° 353° (N) 2,751 6.9 -22.4°
Maximum altitude 18:33:51 79° 80° (E) 1,013 4.4 -23.4°
Drops below altitude 10° 18:40:11 10° 167° (SSE) 2,747 6.7 -24.4°
Sets 18:42:42 0° 169° (S) 3,692 7.4 -24.9°
